Zurück zum Katalog

STARLINK-35654

AktivKommunikationVLEO
NORAD 66483·PAYLOAD·🇺🇸 United States

Gestartet Nov 15, 2025 von Cape Canaveral Space Force Station

Loading…

Nächste Überflüge (nächste 24 Stunden)

TLE

AktuellSource: CelesTrak SupGP

Epoche: Sep 15, 2026, 02:47 UTC

1 66483C 25262AD  26258.11645833  .00032153  00000+0  11643-2 0  2586
2 66483  43.0010 306.1267 0001521 266.2989 313.0211 15.27569854    17

Verfolge STARLINK-35654 in Echtzeit mit AllMySat

Download on the App Store